Location: Seven Kings
(51.5667°N, 0.1000°E)
Time: 04:05:17
(UTC+00:00)

X-37B - Pass Details

Date: 19 June 2021
Orbit: 383 x 392 km, 45.0° (Epoch: 01 July)

Event Time Altitude Azimuth Distance (km) Brightness Sun altitude
Exits shadow 01:24:33 24° 184° (S) 842 1.7 -12.8°
Maximum altitude 01:24:48 24° 176° (S) 836 1.7 -12.8°
Drops below altitude 10° 01:27:26 10° 119° (ESE) 1,407 3.3 -12.6°
Sets 01:29:43 0° 106° (ESE) 2,263 4.5 -12.5°
